Time,TemperatureF,DewpointF,PressureIn,WindDirection,WindDirectionDegrees,WindSpeedMPH,WindSpeedGustMPH,Humidity,HourlyPrecipIn,Conditions,Clouds,dailyrainin,SoftwareType,DateUTC
2013-04-07 00:02:00,51.0,48.0,28.56,NNW,342,0.0,-999.0,91,20.08,,,-99.99,,2013-04-07 05:02:00,
2013-04-07 00:12:00,51.0,48.0,28.56,NNW,342,0.0,-999.0,91,20.08,,,-99.99,,2013-04-07 05:12:00,
2013-04-07 00:22:00,50.0,48.0,28.57,NNW,342,0.0,-999.0,92,20.08,,,-99.99,,2013-04-07 05:22:00,
2013-04-07 00:34:00,50.0,48.0,28.57,NNW,342,0.0,-999.0,92,20.08,,,-99.99,,2013-04-07 05:34:00,
2013-04-07 00:43:00,50.0,48.0,28.57,NNW,342,0.0,-999.0,92,20.08,,,-99.99,,2013-04-07 05:43:00,
2013-04-07 00:52:00,49.0,47.0,28.58,NNW,342,0.0,-999.0,93,20.08,,,-99.99,,2013-04-07 05:52:00,
2013-04-07 01:02:00,49.0,47.0,28.58,NNW,342,0.0,-999.0,93,20.08,,,-99.99,,2013-04-07 06:02:00,
2013-04-07 01:12:00,49.0,47.0,28.58,NNW,342,0.0,-999.0,93,20.08,,,-99.99,,2013-04-07 06:12:00,
2013-04-07 01:22:00,48.0,47.0,28.59,NNW,342,0.0,-999.0,96,20.08,,,-99.99,,2013-04-07 06:22:00,
2013-04-07 01:32:00,48.0,47.0,28.59,NNW,342,0.0,-999.0,96,20.08,,,-99.99,,2013-04-07 06:32:00,
2013-04-07 01:43:00,48.0,47.0,28.59,NNW,342,0.0,-999.0,96,20.08,,,-99.99,,2013-04-07 06:43:00,
2013-04-07 01:52:00,48.0,46.0,28.59,NE,49,0.0,-999.0,94,20.08,,,-99.99,,2013-04-07 06:52:00,
2013-04-07 02:02:00,48.0,46.0,28.59,NE,49,0.0,-999.0,94,20.08,,,-99.99,,2013-04-07 07:02:00,
2013-04-07 02:12:00,48.0,46.0,28.59,NE,49,0.0,-999.0,94,20.08,,,-99.99,,2013-04-07 07:12:00,
2013-04-07 02:22:00,47.0,46.0,28.59,NE,49,0.0,-999.0,95,20.08,,,-99.99,,2013-04-07 07:22:00,
2013-04-07 02:33:00,47.0,46.0,28.59,NE,49,0.0,-999.0,95,20.08,,,-99.99,,2013-04-07 07:33:00,
2013-04-07 02:42:00,47.0,46.0,28.59,NE,49,0.0,-999.0,95,20.08,,,-99.99,,2013-04-07 07:42:00,
2013-04-07 02:52:00,47.0,46.0,28.60,NE,49,0.0,-999.0,95,20.08,,,-99.99,,2013-04-07 07:52:00,
2013-04-07 03:02:00,47.0,46.0,28.60,NE,49,0.0,-999.0,95,20.08,,,-99.99,,2013-04-07 08:02:00,
2013-04-07 03:12:00,46.0,44.0,28.59,NE,49,0.0,-999.0,94,20.08,,,-99.99,,2013-04-07 08:12:00,
2013-04-07 03:22:00,46.0,44.0,28.59,NE,49,0.0,-999.0,94,20.08,,,-99.99,,2013-04-07 08:22:00,
2013-04-07 03:33:00,46.0,44.0,28.59,NE,49,0.0,-999.0,94,20.08,,,-99.99,,2013-04-07 08:33:00,
2013-04-07 03:43:00,46.0,44.0,28.59,NE,49,0.0,-999.0,94,20.08,,,-99.99,,2013-04-07 08:43:00,
2013-04-07 03:53:00,45.0,44.0,28.59,NE,49,0.0,-999.0,96,20.08,,,-99.99,,2013-04-07 08:53:00,
2013-04-07 04:02:00,45.0,44.0,28.59,NE,49,0.0,-999.0,96,20.08,,,-99.99,,2013-04-07 09:02:00,
2013-04-07 04:12:00,45.0,44.0,28.59,NE,49,0.0,-999.0,96,20.08,,,-99.99,,2013-04-07 09:12:00,
2013-04-07 04:22:00,46.0,44.0,28.59,NE,49,0.0,-999.0,94,20.08,,,-99.99,,2013-04-07 09:22:00,
2013-04-07 04:34:00,46.0,44.0,28.59,NE,49,0.0,-999.0,94,20.08,,,-99.99,,2013-04-07 09:34:00,
2013-04-07 04:44:00,46.0,44.0,28.59,NE,49,0.0,-999.0,94,20.08,,,-99.99,,2013-04-07 09:44:00,
2013-04-07 04:53:00,44.0,43.0,28.59,NE,49,0.0,-999.0,95,20.08,,,-99.99,,2013-04-07 09:53:00,
2013-04-07 05:03:00,44.0,43.0,28.59,NE,49,0.0,-999.0,95,20.08,,,-99.99,,2013-04-07 10:03:00,
2013-04-07 05:13:00,44.0,43.0,28.59,NE,49,0.0,-999.0,95,20.08,,,-99.99,,2013-04-07 10:13:00,
2013-04-07 05:22:00,42.0,41.0,28.59,NE,49,0.0,-999.0,97,20.08,,,-99.99,,2013-04-07 10:22:00,
2013-04-07 05:34:00,42.0,41.0,28.59,NE,49,0.0,-999.0,97,20.08,,,-99.99,,2013-04-07 10:34:00,
2013-04-07 05:43:00,42.0,41.0,28.59,NE,49,0.0,-999.0,97,20.08,,,-99.99,,2013-04-07 10:43:00,
2013-04-07 05:54:00,43.0,42.0,28.60,NE,49,0.0,-999.0,97,20.08,,,-99.99,,2013-04-07 10:54:00,
2013-04-07 06:02:00,43.0,42.0,28.60,NE,49,0.0,-999.0,97,20.08,,,-99.99,,2013-04-07 11:02:00,
2013-04-07 06:12:00,43.0,42.0,28.60,NE,49,0.0,-999.0,97,20.08,,,-99.99,,2013-04-07 11:12:00,
2013-04-07 06:22:00,39.0,38.0,28.60,NE,49,0.0,-999.0,98,20.08,,,-99.99,,2013-04-07 11:22:00,
2013-04-07 06:33:00,39.0,38.0,28.60,NE,49,0.0,-999.0,98,20.08,,,-99.99,,2013-04-07 11:33:00,
2013-04-07 06:43:00,39.0,38.0,28.60,NE,49,0.0,-999.0,98,20.08,,,-99.99,,2013-04-07 11:43:00,
2013-04-07 06:53:00,40.0,39.0,28.61,NE,49,0.0,-999.0,98,20.08,,,-99.99,,2013-04-07 11:53:00,
2013-04-07 07:02:00,40.0,39.0,28.61,NE,49,0.0,-999.0,98,20.08,,,-99.99,,2013-04-07 12:02:00,
2013-04-07 07:12:00,40.0,39.0,28.61,NE,49,0.0,-999.0,98,20.08,,,-99.99,,2013-04-07 12:12:00,
2013-04-07 07:22:00,44.0,43.0,28.61,ENE,76,5.0,-999.0,97,20.08,,,-99.99,,2013-04-07 12:22:00,
2013-04-07 07:34:00,44.0,43.0,28.61,ENE,76,5.0,-999.0,97,20.08,,,-99.99,,2013-04-07 12:34:00,
2013-04-07 07:43:00,44.0,43.0,28.61,ENE,76,5.0,-999.0,97,20.08,,,-99.99,,2013-04-07 12:43:00,
2013-04-07 07:53:00,45.0,44.0,28.61,ENE,77,6.0,-999.0,96,20.08,,,-99.99,,2013-04-07 12:53:00,
2013-04-07 08:03:00,45.0,44.0,28.61,ENE,77,6.0,-999.0,96,20.08,,,-99.99,,2013-04-07 13:03:00,
2013-04-07 08:13:00,45.0,44.0,28.61,ENE,77,6.0,-999.0,96,20.08,,,-99.99,,2013-04-07 13:13:00,
2013-04-07 08:22:00,46.0,45.0,28.62,ESE,105,0.0,-999.0,95,20.08,,,-99.99,,2013-04-07 13:22:00,
2013-04-07 08:33:00,46.0,45.0,28.62,ESE,105,0.0,-999.0,95,20.08,,,-99.99,,2013-04-07 13:33:00,
2013-04-07 08:43:00,46.0,45.0,28.62,ESE,105,0.0,-999.0,95,20.08,,,-99.99,,2013-04-07 13:43:00,
2013-04-07 08:53:00,47.0,45.0,28.61,ESE,105,6.0,-999.0,93,20.08,,,-99.99,,2013-04-07 13:53:00,
2013-04-07 09:02:00,47.0,45.0,28.61,ESE,105,6.0,-999.0,93,20.08,,,-99.99,,2013-04-07 14:02:00,
2013-04-07 09:12:00,47.0,45.0,28.61,ESE,105,6.0,-999.0,93,20.08,,,-99.99,,2013-04-07 14:12:00,
2013-04-07 09:23:00,50.0,47.0,28.62,SE,124,9.0,-999.0,91,20.08,,,-99.99,,2013-04-07 14:23:00,
2013-04-07 09:33:00,50.0,47.0,28.62,SE,124,9.0,-999.0,91,20.08,,,-99.99,,2013-04-07 14:33:00,
2013-04-07 09:44:00,50.0,47.0,28.62,SE,124,9.0,-999.0,91,20.08,,,-99.99,,2013-04-07 14:44:00,
2013-04-07 09:54:00,51.0,48.0,28.63,ESE,113,6.0,-999.0,89,20.08,,,-99.99,,2013-04-07 14:54:00,
2013-04-07 10:02:00,51.0,48.0,28.63,ESE,113,6.0,-999.0,89,20.08,,,-99.99,,2013-04-07 15:02:00,
2013-04-07 10:12:00,52.0,48.0,28.61,ESE,118,8.0,-999.0,86,20.08,,,-99.99,,2013-04-07 15:12:00,
2013-04-07 10:22:00,52.0,48.0,28.61,ESE,118,8.0,-999.0,86,20.08,,,-99.99,,2013-04-07 15:22:00,
2013-04-07 10:35:00,52.0,48.0,28.61,ESE,118,8.0,-999.0,86,20.08,,,-99.99,,2013-04-07 15:35:00,
2013-04-07 10:45:00,52.0,48.0,28.61,ESE,118,8.0,-999.0,86,20.08,,,-99.99,,2013-04-07 15:45:00,
2013-04-07 10:54:00,52.0,48.0,28.60,SE,125,11.0,-999.0,86,20.08,,,-99.99,,2013-04-07 15:54:00,
2013-04-07 11:03:00,52.0,48.0,28.60,SE,125,11.0,-999.0,86,20.08,,,-99.99,,2013-04-07 16:03:00,
2013-04-07 11:13:00,52.0,48.0,28.60,SE,125,11.0,-999.0,86,20.08,,,-99.99,,2013-04-07 16:13:00,
2013-04-07 11:24:00,55.0,50.0,28.59,SSE,149,11.0,-999.0,82,20.08,,,-99.99,,2013-04-07 16:24:00,
2013-04-07 11:34:00,55.0,50.0,28.59,SSE,149,11.0,-999.0,82,20.08,,,-99.99,,2013-04-07 16:34:00,
2013-04-07 11:44:00,55.0,50.0,28.59,SSE,149,11.0,-999.0,82,20.08,,,-99.99,,2013-04-07 16:44:00,
2013-04-07 11:54:00,56.0,50.0,28.60,SSE,149,14.0,-999.0,80,20.08,,,-99.99,,2013-04-07 16:54:00,
2013-04-07 12:03:00,56.0,50.0,28.60,SSE,149,14.0,-999.0,80,20.08,,,-99.99,,2013-04-07 17:03:00,
2013-04-07 12:13:00,56.0,50.0,28.60,SSE,149,14.0,-999.0,80,20.08,,,-99.99,,2013-04-07 17:13:00,
2013-04-07 12:23:00,59.0,51.0,28.59,SSE,155,9.0,-999.0,76,20.08,,,-99.99,,2013-04-07 17:23:00,
2013-04-07 12:33:00,59.0,51.0,28.59,SSE,155,9.0,-999.0,76,20.08,,,-99.99,,2013-04-07 17:33:00,
2013-04-07 12:43:00,59.0,51.0,28.59,SSE,155,9.0,-999.0,76,20.08,,,-99.99,,2013-04-07 17:43:00,
2013-04-07 12:53:00,59.0,51.0,28.58,SE,134,9.0,-999.0,76,20.08,,,-99.99,,2013-04-07 17:53:00,
2013-04-07 13:02:00,59.0,51.0,28.58,SE,134,9.0,-999.0,76,20.08,,,-99.99,,2013-04-07 18:02:00,
2013-04-07 13:13:00,59.0,51.0,28.58,SE,134,9.0,-999.0,76,20.08,,,-99.99,,2013-04-07 18:13:00,
2013-04-07 13:23:00,62.0,53.0,28.56,SE,134,11.0,-999.0,72,20.08,,,-99.99,,2013-04-07 18:23:00,
2013-04-07 13:33:00,62.0,53.0,28.56,SE,134,11.0,-999.0,72,20.08,,,-99.99,,2013-04-07 18:33:00,
2013-04-07 13:44:00,62.0,53.0,28.56,SE,134,11.0,-999.0,72,20.08,,,-99.99,,2013-04-07 18:44:00,
2013-04-07 13:53:00,64.0,53.0,28.55,SSE,153,6.0,-999.0,68,20.08,,,-99.99,,2013-04-07 18:53:00,
2013-04-07 14:01:00,66.0,54.0,28.53,SE,146,12.0,-999.0,65,20.08,,,-99.99,,2013-04-07 19:01:00,
2013-04-07 14:02:00,64.0,53.0,28.55,SSE,153,6.0,-999.0,68,20.08,,,-99.99,,2013-04-07 19:02:00,
2013-04-07 14:12:00,64.0,53.0,28.55,SSE,153,6.0,-999.0,68,20.08,,,-99.99,,2013-04-07 19:12:00,
2013-04-07 14:22:00,66.0,54.0,28.53,SE,146,12.0,-999.0,65,20.08,,,-99.99,,2013-04-07 19:22:00,
2013-04-07 14:33:00,66.0,54.0,28.53,SE,146,12.0,-999.0,65,20.08,,,-99.99,,2013-04-07 19:33:00,
2013-04-07 14:43:00,66.0,54.0,28.53,SE,146,12.0,-999.0,65,20.08,,,-99.99,,2013-04-07 19:43:00,
2013-04-07 14:55:00,66.0,54.0,28.53,SE,146,12.0,-999.0,65,20.08,,,-99.99,,2013-04-07 19:55:00,
2013-04-07 15:23:00,68.0,54.0,28.51,South,180,7.0,-999.0,62,20.08,,,-99.99,,2013-04-07 20:23:00,
2013-04-07 15:33:00,68.0,54.0,28.51,South,180,7.0,-999.0,62,20.08,,,-99.99,,2013-04-07 20:33:00,
2013-04-07 15:44:00,68.0,54.0,28.51,South,180,7.0,-999.0,62,20.08,,,-99.99,,2013-04-07 20:44:00,
2013-04-07 15:53:00,69.0,54.0,28.50,SSW,207,8.0,-999.0,58,20.08,,,-99.99,,2013-04-07 20:53:00,
2013-04-07 16:03:00,69.0,54.0,28.50,SSW,207,8.0,-999.0,58,20.08,,,-99.99,,2013-04-07 21:03:00,
2013-04-07 16:13:00,69.0,54.0,28.50,SSW,207,8.0,-999.0,58,20.08,,,-99.99,,2013-04-07 21:13:00,
2013-04-07 16:22:00,71.0,54.0,28.48,SW,225,5.0,-999.0,55,20.08,,,-99.99,,2013-04-07 21:22:00,
2013-04-07 16:35:00,71.0,54.0,28.48,SW,225,5.0,-999.0,55,20.08,,,-99.99,,2013-04-07 21:35:00,
2013-04-07 16:45:00,71.0,54.0,28.48,SW,225,5.0,-999.0,55,20.08,,,-99.99,,2013-04-07 21:45:00,
2013-04-07 16:55:00,71.0,54.0,28.47,SSE,148,7.0,-999.0,55,20.08,,,-99.99,,2013-04-07 21:55:00,
2013-04-07 17:03:00,71.0,54.0,28.47,SSE,148,7.0,-999.0,55,20.08,,,-99.99,,2013-04-07 22:03:00,
2013-04-07 17:14:00,71.0,54.0,28.47,SSE,148,7.0,-999.0,55,20.08,,,-99.99,,2013-04-07 22:14:00,
2013-04-07 17:23:00,64.0,56.0,28.49,SW,233,7.0,-999.0,75,20.08,,,-99.99,,2013-04-07 22:23:00,
2013-04-07 17:34:00,64.0,56.0,28.49,SW,233,7.0,-999.0,75,20.08,,,-99.99,,2013-04-07 22:34:00,
2013-04-07 17:44:00,64.0,56.0,28.49,SW,233,7.0,-999.0,75,20.08,,,-99.99,,2013-04-07 22:44:00,
2013-04-07 17:53:00,64.0,55.0,28.47,SE,146,0.0,-999.0,73,20.08,,,-99.99,,2013-04-07 22:53:00,
2013-04-07 18:03:00,64.0,55.0,28.47,SE,146,0.0,-999.0,73,20.08,,,-99.99,,2013-04-07 23:03:00,
2013-04-07 18:13:00,64.0,55.0,28.47,SE,146,0.0,-999.0,73,20.08,,,-99.99,,2013-04-07 23:13:00,
2013-04-07 18:22:00,66.0,57.0,28.45,ENE,72,0.0,-999.0,73,20.08,,,-99.99,,2013-04-07 23:22:00,
2013-04-07 18:33:00,66.0,57.0,28.45,ENE,72,0.0,-999.0,73,20.08,,,-99.99,,2013-04-07 23:33:00,
2013-04-07 18:43:00,66.0,57.0,28.45,ENE,72,0.0,-999.0,73,20.08,,,-99.99,,2013-04-07 23:43:00,
2013-04-07 18:52:00,66.0,57.0,28.44,ENE,62,0.0,-999.0,74,20.08,,,-99.99,,2013-04-07 23:52:00,
2013-04-07 19:02:00,66.0,57.0,28.44,ENE,62,0.0,-999.0,74,20.08,,,-99.99,,2013-04-08 00:02:00,
2013-04-07 19:12:00,66.0,57.0,28.44,ENE,62,0.0,-999.0,74,20.08,,,-99.99,,2013-04-08 00:12:00,
2013-04-07 19:22:00,65.0,58.0,28.43,East,89,0.0,-999.0,78,20.08,,,-99.99,,2013-04-08 00:22:00,
2013-04-07 19:33:00,65.0,58.0,28.43,East,89,0.0,-999.0,78,20.08,,,-99.99,,2013-04-08 00:33:00,
2013-04-07 19:43:00,65.0,58.0,28.43,East,89,0.0,-999.0,78,20.08,,,-99.99,,2013-04-08 00:43:00,
2013-04-07 19:53:00,63.0,56.0,28.43,East,80,3.0,-999.0,78,20.08,,,-99.99,,2013-04-08 00:53:00,
2013-04-07 20:02:00,63.0,56.0,28.43,East,80,3.0,-999.0,78,20.08,,,-99.99,,2013-04-08 01:02:00,
2013-04-07 20:12:00,63.0,56.0,28.43,East,80,3.0,-999.0,78,20.08,,,-99.99,,2013-04-08 01:12:00,
2013-04-07 20:22:00,62.0,56.0,28.43,East,83,0.0,-999.0,81,20.08,,,-99.99,,2013-04-08 01:22:00,
2013-04-07 20:34:00,62.0,56.0,28.43,East,83,0.0,-999.0,81,20.08,,,-99.99,,2013-04-08 01:34:00,
2013-04-07 20:44:00,62.0,56.0,28.43,East,83,0.0,-999.0,81,20.08,,,-99.99,,2013-04-08 01:44:00,
2013-04-07 20:55:00,62.0,56.0,28.43,East,83,0.0,-999.0,80,20.08,,,-99.99,,2013-04-08 01:55:00,
2013-04-07 21:02:00,62.0,56.0,28.43,East,83,0.0,-999.0,80,20.08,,,-99.99,,2013-04-08 02:02:00,
2013-04-07 21:12:00,62.0,56.0,28.43,East,83,0.0,-999.0,80,20.08,,,-99.99,,2013-04-08 02:12:00,
2013-04-07 21:22:00,59.0,55.0,28.45,NW,325,7.0,-999.0,88,20.08,,,-99.99,,2013-04-08 02:22:00,
2013-04-07 21:33:00,59.0,55.0,28.45,NW,325,7.0,-999.0,88,20.08,,,-99.99,,2013-04-08 02:33:00,
2013-04-07 21:48:00,59.0,55.0,28.45,NW,325,7.0,-999.0,88,20.08,,,-99.99,,2013-04-08 02:48:00,
2013-04-07 21:54:00,57.0,54.0,28.46,North,356,0.0,-999.0,90,20.08,,,-99.99,,2013-04-08 02:54:00,
2013-04-07 22:06:00,57.0,54.0,28.46,North,356,0.0,-999.0,90,20.08,,,-99.99,,2013-04-08 03:06:00,
2013-04-07 22:15:00,57.0,54.0,28.46,North,356,0.0,-999.0,90,20.08,,,-99.99,,2013-04-08 03:15:00,
2013-04-07 22:37:00,56.0,53.0,28.46,ENE,58,0.0,-999.0,91,20.08,,,-99.99,,2013-04-08 03:37:00,
2013-04-07 22:48:00,56.0,53.0,28.46,ENE,58,0.0,-999.0,91,20.08,,,-99.99,,2013-04-08 03:48:00,
2013-04-07 22:56:00,56.0,54.0,28.48,SSE,150,3.0,-999.0,92,20.09,,,-99.99,,2013-04-08 03:56:00,
2013-04-07 23:03:00,56.0,54.0,28.48,SSE,150,3.0,-999.0,92,20.09,,,-99.99,,2013-04-08 04:03:00,
2013-04-07 23:12:00,56.0,54.0,28.48,SSE,150,3.0,-999.0,92,20.09,,,-99.99,,2013-04-08 04:12:00,
2013-04-07 23:21:00,54.0,53.0,28.46,ESE,105,6.0,-999.0,97,20.30,,,-99.99,,2013-04-08 04:21:00,
2013-04-07 23:23:00,54.0,53.0,28.47,South,188,8.0,-999.0,96,20.24,,,-99.99,,2013-04-08 04:23:00,
2013-04-07 23:34:00,54.0,53.0,28.47,South,188,8.0,-999.0,96,20.24,,,-99.99,,2013-04-08 04:34:00,
2013-04-07 23:44:00,54.0,53.0,28.47,South,188,8.0,-999.0,96,20.24,,,-99.99,,2013-04-08 04:44:00,
2013-04-07 23:53:00,54.0,53.0,28.46,ESE,105,6.0,-999.0,97,20.30,,,-99.99,,2013-04-08 04:53:00,